Weather History for Poplar Bluff, MO

Change the Weather History Date:

Wednesday, December 26, 2012

  Actual Average Record
Temperature  
Mean Temperature 33 °F -  
Max Temperature 36 °F 41 °F 75 °F (1942)
Min Temperature 30 °F 24 °F -5 °F (1926)
Degree Days  
Heating Degree Days 32    
Moisture  
Dew Point 26 °F    
Average Humidity 76    
Maximum Humidity 88    
Minimum Humidity 59    
Precipitation  
Precipitation 0.18 in - - ()
Sea Level Pressure  
Sea Level Pressure 29.90 in    
Wind  
Wind Speed 23 mph (NNW)    
Max Wind Speed 34 mph    
Max Gust Speed 48 mph    
Visibility 6 miles    
Events Fog , Snow , Thunderstorm    
Averages and records for this station are not official NWS values.
T = Trace of Precipitation, MM = Missing Value Source: NWS Daily Summary

Daily Weather History Graph

Daily Weather History Graph

Search for Another Location

Airport:

Trip Planner

Search our weather history database for the weather conditions in past years. The results will help you decide how hot, cold, wet, or windy it might be!

Date:

Astronomy

Dec. 26, 2012 Rise Set
Actual Time 7:12 AM CST 4:51 PM CST
Civil Twilight 6:43 AM CST 5:20 PM CST
Nautical Twilight 6:11 AM CST 5:53 PM CST
Astronomical Twilight 5:39 AM CST 6:24 PM CST
Moon 3:44 PM CST (12/26) 5:36 AM CST (12/26)
Length of Visible Light 10h 37m
Length of Day
9h 39m
Waxing Gibbous, 97% of the Moon is Illuminated
Dec 26
Waxing Gibbous
Dec 28
Full
Jan 4
Last Quarter
Jan 11
New
Jan 18
First Quarter

Hourly Weather History & Observations

Time (CST) Temp. Windchill Dew Point Humidity Pressure Visibility Wind Dir Wind Speed Gust Speed Precip Events Conditions
12:11 AM 33.8 °F 20.5 °F 28.4 °F 81% 29.72 in 1.0 mi North 27.6 mph 35.7 mph 0.00 in Snow Light Snow
12:24 AM 33.8 °F 19.2 °F 28.4 °F 81% 29.71 in 0.8 mi North 34.5 mph 44.9 mph 0.01 in Snow Light Snow
12:36 AM 32.0 °F 17.2 °F 28.4 °F 87% 29.70 in 0.2 mi North 32.2 mph 47.2 mph 0.03 in Fog Fog
12:53 AM 32.0 °F 17.0 °F 28.9 °F 88% 29.71 in 0.2 mi North 33.4 mph 48.3 mph 0.05 in Fog Fog
1:06 AM 32.0 °F 17.4 °F 28.4 °F 87% 29.70 in 0.2 mi North 31.1 mph 44.9 mph 0.01 in Fog , Thunderstorm Unknown
1:27 AM 32.0 °F 17.4 °F 28.4 °F 87% 29.70 in 0.2 mi North 31.1 mph 41.4 mph 0.03 in Fog Fog
1:46 AM 32.0 °F 18.1 °F 28.4 °F 87% 29.71 in 0.5 mi North 27.6 mph 39.1 mph 0.06 in Fog Fog
1:53 AM 32.0 °F 18.1 °F 28.9 °F 88% 29.73 in 0.5 mi North 27.6 mph 39.1 mph 0.06 in Fog Fog
2:04 AM 32.0 °F 18.1 °F 28.4 °F 87% 29.71 in 0.5 mi North 27.6 mph 40.3 mph 0.01 in Fog Fog
2:53 AM 32.0 °F 18.6 °F 28.9 °F 88% 29.74 in 0.8 mi North 25.3 mph 33.4 mph 0.03 in Snow Light Snow
3:31 AM 32.0 °F 19.8 °F 28.4 °F 87% 29.73 in 1.0 mi NNW 20.7 mph 34.5 mph 0.01 in Snow Light Snow
3:38 AM 32.0 °F 18.4 °F 28.4 °F 87% 29.73 in 1.0 mi NNW 26.5 mph 34.5 mph 0.03 in Snow Light Snow
3:53 AM 32.0 °F 18.1 °F 28.0 °F 85% 29.75 in 1.0 mi NNW 27.6 mph 40.3 mph 0.03 in Snow Light Snow
4:53 AM 32.0 °F 18.6 °F 28.0 °F 85% 29.77 in 1.8 mi NNW 25.3 mph 33.4 mph 0.01 in Snow Light Snow
5:00 AM 32.0 °F 19.5 °F 28.4 °F 87% 29.76 in 2.0 mi NNW 21.9 mph 34.5 mph 0.00 in Snow Light Snow
5:13 AM 32.0 °F 19.2 °F 28.4 °F 87% 29.76 in 1.5 mi NNW 23.0 mph 32.2 mph 0.00 in Snow Light Snow
5:35 AM 32.0 °F 19.8 °F 28.4 °F 87% 29.76 in 1.2 mi NNW 20.7 mph 28.8 mph 0.00 in Snow Light Snow
5:53 AM 32.0 °F 19.8 °F 28.0 °F 85% 29.80 in 1.5 mi NNW 20.7 mph 29.9 mph 0.00 in Snow Light Snow
6:16 AM 30.2 °F 17.8 °F 26.6 °F 86% 29.79 in 2.0 mi NNW 19.6 mph 28.8 mph 0.00 in Snow Light Snow
6:24 AM 32.0 °F 19.2 °F 26.6 °F 80% 29.79 in 3.0 mi NNW 23.0 mph 29.9 mph 0.00 in Snow Light Snow
6:53 AM 32.0 °F 18.6 °F 25.0 °F 75% 29.83 in 8.0 mi NNW 25.3 mph 31.1 mph 0.00 in   Overcast
7:53 AM 32.0 °F 22.1 °F 25.0 °F 75% 29.88 in 10.0 mi NNW 13.8 mph 32.2 mph N/A   Overcast
8:53 AM 32.0 °F 19.2 °F 24.1 °F 73% 29.93 in 10.0 mi NNW 23.0 mph 29.9 mph N/A   Overcast
9:53 AM 32.0 °F 22.1 °F 23.0 °F 69% 29.98 in 10.0 mi NW 13.8 mph - N/A   Overcast
10:53 AM 32.0 °F 21.6 °F 23.0 °F 69% 30.02 in 10.0 mi NW 15.0 mph 26.5 mph N/A   Overcast
11:53 AM 33.1 °F 22.6 °F 23.0 °F 66% 30.01 in 10.0 mi NNW 16.1 mph 26.5 mph N/A   Overcast
12:53 PM 34.0 °F 22.7 °F 24.1 °F 67% 30.00 in 10.0 mi NNW 19.6 mph 27.6 mph N/A   Overcast
1:53 PM 36.0 °F 25.0 °F 23.0 °F 59% 30.02 in 10.0 mi NNW 20.7 mph 28.8 mph N/A   Overcast
2:22 PM 35.6 °F 24.8 °F 24.8 °F 65% 30.02 in 10.0 mi NNW 19.6 mph 29.9 mph N/A   Overcast
2:53 PM 36.0 °F 28.5 °F 24.1 °F 62% 30.06 in 10.0 mi NNW 10.4 mph 23.0 mph N/A   Overcast
3:53 PM 36.0 °F 27.1 °F 24.1 °F 62% 30.07 in 10.0 mi NNW 13.8 mph - N/A   Overcast
4:53 PM 36.0 °F 29.0 °F 23.0 °F 59% 30.11 in 10.0 mi NW 9.2 mph - N/A   Overcast
5:53 PM 33.1 °F 27.7 °F 21.9 °F 64% 30.11 in 10.0 mi North 5.8 mph - N/A   Mostly Cloudy
6:53 PM 33.1 °F 28.7 °F 23.0 °F 66% 30.14 in 10.0 mi NNW 4.6 mph - N/A   Overcast
7:53 PM 34.0 °F 25.0 °F 21.9 °F 61% 30.16 in 10.0 mi North 12.7 mph - N/A   Overcast
8:53 PM 33.1 °F 27.7 °F 23.0 °F 66% 30.17 in 10.0 mi North 5.8 mph - N/A   Overcast
9:53 PM 33.1 °F 26.9 °F 21.9 °F 64% 30.19 in 10.0 mi NNE 6.9 mph - N/A   Overcast
10:53 PM 33.1 °F 28.7 °F 21.9 °F 64% 30.20 in 10.0 mi North 4.6 mph - N/A   Overcast
11:15 PM 32.0 °F 28.7 °F 23.0 °F 69% 30.18 in 10.0 mi North 3.5 mph - N/A   Overcast
11:53 PM 32.0 °F 28.7 °F 23.0 °F 69% 30.19 in 10.0 mi NNE 3.5 mph - N/A   Overcast